Butte, MT

11:52 AM MDT on March 26, 2017 (GMT -0600)
Mooney

Weather History for KBTM - November, 2013

Change the Weather History Date:

Wednesday, November 20, 2013

  Actual Average Record
Temperature  
Mean Temperature 26 °F 25 °F  
Max Temperature 40 °F 37 °F 60 °F (1989)
Min Temperature 12 °F 13 °F -32 °F (1977)
Degree Days  
Heating Degree Days 39 40  
Month to date heating degree days 629 693  
Since 1 July heating degree days 1871 2064  
Cooling Degree Days 0 0  
Month to date cooling degree days 0 0  
Year to date cooling degree days 104 81  
Moisture  
Dew Point 23 °F    
Average Humidity 73    
Maximum Humidity 96    
Minimum Humidity 49    
Precipitation  
Precipitation 0.10 in 0.02 in 1.20 in (1921)
Month to date precipitation 0.20 0.41  
Year to date precipitation 11.10 12.07  
Sea Level Pressure  
Sea Level Pressure 29.86 in    
Wind  
Wind Speed 5 mph (NNW)    
Max Wind Speed 18 mph    
Max Gust Speed 25 mph    
Visibility 8 miles    
Events Rain , Snow    
T = Trace of Precipitation, MM = Missing Value Source: NWS Daily Summary

Daily Weather History Graph

Daily Weather History Graph

Search for Another Location

Airport or City:

Trip Planner

Search our weather history database for the weather conditions in past years. The results will help you decide how hot, cold, wet, or windy it might be!

Date:

Astronomy

Nov. 20, 2013 Rise Set
Actual Time 7:37 AM MST 4:53 PM MST
Civil Twilight 7:04 AM MST 5:26 PM MST
Nautical Twilight 6:28 AM MST 6:02 PM MST
Astronomical Twilight 5:52 AM MST 6:38 PM MST
Moon 7:39 PM MST (11/20) 10:05 AM MST (11/20)
Length of Visible Light 10h 21m
Length of Day
9h 15m
Waning Gibbous, 91% of the Moon is Illuminated
Nov 20
Waning Gibbous
Nov 25
Last Quarter
Dec 2
New
Dec 9
First Quarter
Dec 17
Full

Hourly Weather History & Observations

Time (MST) Temp. Windchill Dew Point Humidity Pressure Visibility Wind Dir Wind Speed Gust Speed Precip Events Conditions
12:53 AM 37.9 °F - 30.0 °F 73% 29.65 in 10.0 mi Calm Calm - N/A   Overcast
1:53 AM 39.9 °F 36.7 °F 28.0 °F 63% 29.63 in 10.0 mi ENE 4.6 mph - N/A   Overcast
2:53 AM 37.9 °F - 30.0 °F 73% 29.65 in 10.0 mi Calm Calm - N/A   Overcast
3:53 AM 36.0 °F 32.1 °F 32.0 °F 86% 29.66 in 10.0 mi East 4.6 mph - 0.00 in Rain Light Rain
4:53 AM 35.1 °F - 32.0 °F 89% 29.65 in 10.0 mi Calm Calm - 0.00 in Rain Light Rain
5:13 AM 35.6 °F 32.8 °F 33.8 °F 93% 29.68 in 10.0 mi WNW 3.5 mph - 0.01 in Rain Light Rain
5:20 AM 35.6 °F 30.7 °F 33.8 °F 93% 29.68 in 5.0 mi NNW 5.8 mph - 0.02 in Rain Rain
5:53 AM 34.0 °F - 32.0 °F 92% 29.69 in 8.0 mi Calm Calm - 0.05 in Rain Light Rain
6:24 AM 33.8 °F - 32.0 °F 93% 29.69 in 2.0 mi Calm Calm - 0.03 in Snow Light Snow
6:28 AM 33.8 °F - 30.2 °F 87% 29.69 in - Calm Calm - 0.03 in Snow Snow
6:45 AM 32.0 °F 27.5 °F 32.0 °F 100% 29.69 in - SSE 4.6 mph - 0.05 in Snow Light Snow
6:53 AM 32.0 °F 28.7 °F 32.0 °F 100% 29.71 in - ESE 3.5 mph - 0.05 in Snow Light Snow
7:01 AM 33.8 °F 30.8 °F 32.0 °F 93% 29.70 in - SE 3.5 mph - N/A   Overcast
7:53 AM 32.0 °F - 30.9 °F 96% 29.73 in - Calm Calm - N/A   Overcast
8:25 AM 33.8 °F 28.6 °F 32.0 °F 93% 29.73 in 4.0 mi NW 5.8 mph - 0.00 in   Overcast
8:29 AM 33.8 °F 27.7 °F 32.0 °F 93% 29.74 in 2.5 mi NW 6.9 mph - 0.00 in Snow Light Snow
8:34 AM 33.8 °F 27.7 °F 32.0 °F 93% 29.74 in 1.5 mi NW 6.9 mph - 0.00 in Snow Light Snow
8:46 AM 33.8 °F 28.6 °F 32.0 °F 93% 29.75 in 3.0 mi NNW 5.8 mph - 0.00 in Snow Light Snow
8:53 AM 33.1 °F 28.7 °F 32.0 °F 96% 29.76 in 7.0 mi NNW 4.6 mph - 0.00 in   Overcast
9:06 AM 33.8 °F 27.0 °F 32.0 °F 93% 29.76 in 10.0 mi NNW 8.1 mph - 0.00 in   Overcast
9:53 AM 32.0 °F 22.1 °F 24.1 °F 73% 29.82 in 10.0 mi NNW 13.8 mph 19.6 mph 0.00 in   Overcast
10:14 AM 32.0 °F 23.0 °F 24.8 °F 75% 29.81 in 10.0 mi NNW 11.5 mph - N/A   Overcast
10:53 AM 30.9 °F 23.5 °F 21.9 °F 69% 29.88 in 10.0 mi NNW 8.1 mph - N/A   Overcast
11:04 AM 30.2 °F 22.6 °F 21.2 °F 69% 29.84 in 10.0 mi NNW 8.1 mph - N/A   Overcast
11:53 AM 30.9 °F 21.2 °F 19.9 °F 64% 29.89 in 10.0 mi NNW 12.7 mph - N/A   Overcast
12:53 PM 30.9 °F 20.7 °F 14.0 °F 50% 29.91 in 10.0 mi NW 13.8 mph 25.3 mph N/A   Scattered Clouds
1:53 PM 30.0 °F 20.5 °F 14.0 °F 51% 29.93 in 10.0 mi NW 11.5 mph - N/A   Clear
2:53 PM 28.9 °F 19.2 °F 12.9 °F 51% 29.97 in 10.0 mi NNW 11.5 mph - N/A   Mostly Cloudy
3:53 PM 28.9 °F 19.8 °F 12.9 °F 51% 30.01 in 10.0 mi North 10.4 mph - N/A   Mostly Cloudy
4:53 PM 27.0 °F 18.7 °F 12.0 °F 53% 30.07 in 10.0 mi North 8.1 mph - N/A   Overcast
5:53 PM 25.0 °F 18.1 °F 10.0 °F 53% 30.12 in 10.0 mi Variable 5.8 mph - N/A   Mostly Cloudy
6:53 PM 19.9 °F - 8.1 °F 60% 30.19 in 10.0 mi Calm Calm - N/A   Overcast
7:53 PM 17.1 °F 7.6 °F 6.1 °F 62% 30.25 in 10.0 mi West 6.9 mph - N/A   Clear
8:53 PM 12.9 °F - 8.1 °F 81% 30.30 in 10.0 mi Calm Calm - N/A   Clear
9:53 PM 12.9 °F 6.9 °F 8.1 °F 81% 30.31 in 10.0 mi SE 3.5 mph - N/A   Clear
10:53 PM 12.0 °F - 5.0 °F 73% 30.33 in 10.0 mi Calm Calm - N/A   Clear
11:53 PM 12.9 °F - 3.9 °F 67% 30.35 in 10.0 mi Calm Calm - N/A   Clear